Location: Cabeza de los Veneras
(40.2000°N, 5.2000°W)
Time: 11:29:39
(UTC+00:00)

Okean 2 Rocket - Pass Details

Date: 18 April 2024
Orbit: 613 x 639 km, 82.5° (Epoch: 21 May)

Event Time Altitude Azimuth Distance (km) Brightness Sun altitude
Exits shadow 20:17:41 10° 167° (SSE) 2,043 5.3 -14.0°
Reaches altitude 10° 20:17:44 10° 167° (SSE) 2,023 5.3 -14.0°
Maximum altitude 20:22:04 48° 93° (E) 833 3.3 -14.8°
Drops below altitude 10° 20:26:24 10° 19° (NNE) 2,032 5.8 -15.5°
Sets 20:28:42 0° 14° (NNE) 2,943 6.8 -15.9°
